sat.trackr.live / text

‹ back to catalog

STARLINK-36713

NORAD 67701 · 2026-025J

PAYLOAD ACTIVE UNKNOWN

§ Identity

Operator
Country
US
Launch date
2026-02-07
Launch site
AFWTR
Launch vehicle
Mass (kg)
RCS (m²)

Purposes: comms

External: N2YO · Heavens-Above · Gunter

§ Orbital elements

Epoch: 2026-09-19T06:21:28.926432Z

Period
93.91 min
Inclination
97.2892°
Eccentricity
0.0002335
Mean motion
15.33446671 rev/d
Perigee alt
463.9 km
Apogee alt
467.1 km
Semi-major
6,843.7 km
B*
7.8311e-4
RAAN
12.1380°
Arg perigee
106.7320°
Mean anomaly
253.4179°
Rev number
3,568

§ Raw data

STARLINK-367131 67701U 26025J   26262.26491813  .00025294  00000+0  78311-3 0  99922 67701  97.2892  12.1380 0002335 106.7320 253.4179 15.33446671 35680

JSON: /api/v1/satellites/67701 · /tle

For live sub-satellite position, see the globe view (requires WebGL).

§ Visibility from observer

Set your observer location to see the next 7 days of passes ≥ 10°. The values pass through the URL so the page stays shareable.

No JS? Fill the form by hand. The geolocation button needs JavaScript.